Location: Caltech
(34.1382°N, 118.1253°W)
Time: 00:24:59
(UTC-07:00)

Iridium 18 - Visible Passes

Search period start: 31 July 2015 00:00
Search period end: 10 August 2015 00:00
Orbit: 776 x 779 km, 86.4° (Epoch: 30 July)

Date Brightness Start Highest point End Pass type
(mag) Time Alt. Az. Time Alt. Az. Time Alt. Az.
31 Jul 7.5 00:55:45 25° NNE 00:55:45 25° NNE 00:57:56 10° N visible
01 Aug 7.7 00:22:21 19° NNE 00:22:21 19° NNE 00:24:02 10° NNE visible
01 Aug 7.9 02:02:50 15° NW 02:02:50 15° NW 02:04:01 10° NNW visible
01 Aug 8.1 23:48:58 12° NE 23:48:58 12° NE 23:49:32 10° NE visible
02 Aug 7.7 01:29:26 21° NNW 01:29:26 21° NNW 01:31:17 10° NNW visible
03 Aug 7.6 00:56:01 24° N 00:56:01 24° N 00:58:02 10° N visible
04 Aug 7.7 00:22:37 21° NNE 00:22:37 21° NNE 00:24:24 10° NNE visible
04 Aug 7.9 23:49:12 15° NE 23:49:12 15° NE 23:50:19 10° NNE visible
05 Aug 7.9 01:29:40 16° NW 01:29:40 16° NW 01:30:58 10° NNW visible
06 Aug 7.8 00:56:15 21° NNW 00:56:15 21° NNW 00:58:00 10° N visible
07 Aug 7.7 00:22:49 22° N 00:22:49 22° N 00:24:36 10° N visible
07 Aug 7.8 23:49:23 18° NNE 23:49:23 18° NNE 23:50:47 10° NNE visible
08 Aug 8.2 01:29:52 12° NW 01:29:52 12° NW 01:30:22 10° NW visible
08 Aug 8.0 23:15:57 12° NE 23:15:57 12° NE 23:16:27 10° NE visible
09 Aug 8.0 00:56:25 17° NNW 00:56:25 17° NNW 00:57:49 10° NNW visible
